Regional Weather Roundup
Issued by NWS

Home | Current Version | Previous Version | Text Only | Print | Product List | Glossary Off
Versions: 1 2 3 4 5 6 7 8 9 10 11 12 13 14 15 16 17 18 19 20 21 22 23 24 25 26 27 28 29 30 31 32 33 34 35 36 37 38 39 40 41 42 43 44 45 46 47 48 49 50

000
ASUS43 KLOT 011621
RWRIL

ILLINOIS REGIONAL WEATHER ROUNDUP
NATIONAL WEATHER SERVICE CHICAGO/ROMEOVILLE IL
1100 AM CDT WED APR 01 2015

NOTE: "FAIR" INDICATES FEW OR NO CLOUDS BELOW 12,000 FEET WITH NO
SIGNIFICANT WEATHER AND/OR OBSTRUCTIONS TO VISIBILITY.

* THESE STATIONS ARE NOT UNDER NWS QUALITY CONTROL. THEY ALSO MAY NOT
  REPORT WEATHER SUCH AS PRECIPITATION OR FOG.

ILZ001-002-007-009-015-016-024-011700-
NORTHWEST ILLINOIS

CITY           SKY/WX    TMP DP  RH WIND       PRES   REMARKS
MOLINE         SUNNY     71  32  23 S15G24    29.94F
STERLING*      SUNNY     66  41  39 S7        29.98F
SAVANNA*       SUNNY     66  35  31 S9        29.96F
$$

ILZ003-004-008-010-011-017-018-011700-
NORTH CENTRAL ILLINOIS

CITY           SKY/WX    TMP DP  RH WIND       PRES   REMARKS
ROCKFORD       MOSUNNY   63  38  39 SE8       30.02F
FREEPORT*      SUNNY     63  37  38 SE9       30.00F
ROCHELLE*      SUNNY     64  39  39 S9        30.01F
DE KALB*       SUNNY     59  39  48 S9        30.04S
PERU*          SUNNY     65  38  36 S8        30.02F
$$

ILZ005-006-012>014-019>023-011700-
NORTHEAST ILLINOIS

CITY           SKY/WX    TMP DP  RH WIND       PRES   REMARKS
CHICAGO-OHARE  MOSUNNY   59  37  44 S7        30.05S
CHICAGO-MIDWAY MOSUNNY   61  38  42 SW13      30.06F
AURORA         SUNNY     60  39  45 S10       30.05S
LANSING*       SUNNY     60  36  40 SW14G20   30.08S
JOLIET*        SUNNY     62  41  45 S9        30.06S
WAUKEGAN       SUNNY     49  37  63 E8        30.05F
DUPAGE AIRPORT SUNNY     60  38  43 S12       30.04S
KANKAKEE*      SUNNY     63  40  43 S14       30.07S
WHEELING       SUNNY     59  36  42 S12       30.06F
MORRIS*        SUNNY     63  38  40 S10       30.03F
ROMEOVILLE*    SUNNY     61  38  42 S8        30.05F
NORTHERLY ISL    N/A     46  36  68 E3          N/A
$$

LMZ740>746-011700-
SOUTHERN LAKE MICHIGAN

STATION/POSITION SKY/WX   TEMP    WIND        PRES    VSBY  WAVE
                          AIR SEA DIR/SP/G                  HT/PER
                          (F)     (DEG/KT/KT) (MB)    (MI)  (FT/S)
HARRISON CRIB              45     130/ 11/ 11   N/A
BURNHAM HARBOR             46      CALM  /  5   N/A
CALUMET HARBOR             50     110/  4/  9 1017.1F
BURNS HARBOR               54     200/ 10/ 13 1019.3S
MICHIGAN CITY              49     310/  2/  3   N/A
$$

ILZ025>027-034>036-040-047-049-050-058-095>099-011700-
WEST-CENTRAL ILLINOIS

CITY           SKY/WX    TMP DP  RH WIND       PRES   REMARKS
QUINCY         MOSUNNY   69  35  28 S14       29.98S
GALESBURG*     SUNNY     69  38  32 S15G21    29.97F
MACOMB*        SUNNY     71  35  26 S17       29.99S
JACKSONVILLE*  SUNNY     71  38  30 S16       30.00F
PITTSFIELD*    MOSUNNY   71  39  31 S14       30.00S
$$

ILZ028>032-037-038-041>044-048-051>054-059>061-011700-
CENTRAL ILLINOIS

CITY           SKY/WX    TMP DP  RH WIND       PRES   REMARKS
PONTIAC        SUNNY     65  42  43 S13       30.04F
BLOOMINGTON    SUNNY     64  41  43 S17       30.04F
DECATUR        SUNNY     64  41  42 S14       30.05F
PEORIA         SUNNY     66  39  37 S10       30.00F
LACON*         SUNNY     67  36  32 SW7       29.99F
LINCOLN*       SUNNY     66  41  39 S10       30.02S
SPRINGFIELD    SUNNY     67  41  38 S15       30.02F
TAYLORVILLE    SUNNY     63  43  48 SE14      30.04F
$$

ILZ033-039-045-046-055>057-062-063-011700-
EAST-CENTRAL ILLINOIS

CITY           SKY/WX    TMP DP  RH WIND       PRES   REMARKS
CHAMPAIGN      SUNNY     62  40  44 S17       30.07F
DANVILLE*      SUNNY     60  39  46 S8        30.06S
RANTOUL*       SUNNY     64  41  44 S14       30.07F
MATTOON        SUNNY     59  40  49 S13       30.07S
PARIS*         SUNNY     60  42  50 SE13      30.10S
$$

ILZ079-100>102-011700-
SOUTHWEST ILLINOIS

CITY           SKY/WX    TMP DP  RH WIND       PRES   REMARKS
ALTON          PTSUNNY   66  32  28 S12       30.04
BELLEVILLE     MOSUNNY   66  44  44 SE9       30.04S
CAHOKIA*       MOSUNNY   68  39  34 S10       30.04S
SPARTA*        MOSUNNY   64  40  41 S8        30.07F
$$

ILZ064>066-069>071-074>076-080>082-084>086-088>090-092>094-011700-
SOUTH-CENTRAL ILLINOIS

CITY           SKY/WX    TMP DP  RH WIND       PRES   REMARKS
CARBONDALE     MOSUNNY   66  38  35 SE10      30.07S
CAIRO*         MOSUNNY   68  41  38 E8        30.08S
EFFINGHAM*     MOSUNNY   62  37  38 E12G17    30.10S
MARION         PTSUNNY   68  41  37 SE9       30.08S
MT. VERNON     MOSUNNY   64  43  45 SE8       30.09S
CENTRALIA*     MOSUNNY   64  39  40 S10       30.07S
SALEM*         MOSUNNY   65  39  39 SE8       30.08S
METROPOLIS*    SUNNY     67  41  38 SE5       30.08F
$$

ILZ067-068-072-073-078-083-087-091-011700-
SOUTHEAST ILLINOIS

CITY           SKY/WX    TMP DP  RH WIND       PRES   REMARKS
LAWRENCEVILLE  SUNNY     62  39  42 SE12      30.12S
FLORA*         SUNNY     63  39  42 SE12      30.09F
FAIRFIELD*     SUNNY     64  41  43 SE9       30.08F
HARRISBURG*    MOSUNNY   65  42  42 SE7       30.10S
ROBINSON*      SUNNY     61  38  42 SE12      30.12S
CARMI*         SUNNY     63  34  34 SE10      30.09F
$$

ABBREVIATIONS USED IN REMARKS
   TC - TEMPERATURE IN CELSIUS
  WCI - WIND CHILL INDEX
   HX - HEAT INDEX
  VSB - VISIBILITY
$$




USA.gov is the U.S. government's official web portal to all federal, state and local government web resources and services.